| time (UTC) | temp F | wind direction | speed MPH | gust MPH | rain 1hr in | rain 24hr in | rain mn in | humidity % | barometer mb |
| 20260507230530 | 58 | 128 | 2.0 | 3.0 | 0.00 | 0.06 | 0.06 | 43 | 976.5 |
| 20260507230026 | 58 | 202 | 3.0 | 3.0 | 0.00 | 0.06 | 0.06 | 43 | 976.5 |
| 20260507225521 | 59 | 141 | 2.0 | 7.0 | 0.00 | 0.06 | 0.06 | 45 | 976.5 |
| 20260507225018 | 60 | 0 | 2.0 | 9.0 | 0.00 | 0.06 | 0.06 | 43 | 976.5 |
| 20260507224513 | 61 | 108 | 0.0 | 2.0 | 0.00 | 0.06 | 0.06 | 44 | 976.7 |
| 20260507224010 | 60 | 107 | 2.0 | 3.0 | 0.00 | 0.06 | 0.06 | 44 | 976.4 |
| 20260507223506 | 60 | 110 | 2.0 | 4.0 | 0.00 | 0.06 | 0.06 | 46 | 976.3 |
| 20260507223004 | 61 | 101 | 1.0 | 2.0 | 0.00 | 0.06 | 0.06 | 49 | 976.3 |
| 20260507222501 | 61 | 119 | 5.0 | 6.0 | 0.00 | 0.06 | 0.06 | 43 | 976.4 |
| 20260507221957 | 60 | 105 | 1.0 | 3.0 | 0.00 | 0.06 | 0.06 | 43 | 976.4 |
| 20260507221453 | 59 | 47 | 1.0 | 2.0 | 0.00 | 0.06 | 0.06 | 47 | 976.3 |
| 20260507220950 | 59 | 122 | 3.0 | 8.0 | 0.00 | 0.06 | 0.06 | 45 | 976.5 |
| 20260507220448 | 59 | 116 | 0.0 | 7.0 | 0.00 | 0.06 | 0.06 | 48 | 976.4 |
| 20260507215944 | 60 | 126 | 4.0 | 6.0 | 0.00 | 0.06 | 0.06 | 43 | 976.2 |
| 20260507215441 | 61 | 102 | 4.0 | 6.0 | 0.00 | 0.06 | 0.06 | 49 | 976.3 |
| 20260507214938 | 60 | 96 | 0.0 | 7.0 | 0.00 | 0.06 | 0.06 | 45 | 976.1 |
| 20260507214436 | 60 | 56 | 1.0 | 4.0 | 0.00 | 0.06 | 0.06 | 45 | 976.0 |
| 20260507213931 | 61 | 310 | 2.0 | 3.0 | 0.00 | 0.06 | 0.06 | 44 | 975.9 |
| 20260507213428 | 60 | 53 | 2.0 | 3.0 | 0.00 | 0.06 | 0.06 | 45 | 975.9 |
| 20260507212925 | 62 | 105 | 0.0 | 3.0 | 0.00 | 0.06 | 0.06 | 43 | 975.9 |
| 20260507212420 | 62 | 305 | 3.0 | 4.0 | 0.00 | 0.06 | 0.06 | 41 | 975.8 |
| 20260507211918 | 62 | 5 | 4.0 | 10.0 | 0.00 | 0.06 | 0.06 | 45 | 975.7 |
| 20260507211409 | 61 | 76 | 2.0 | 9.0 | 0.00 | 0.06 | 0.06 | 44 | 975.6 |
| 20260507210906 | 60 | 66 | 4.0 | 7.0 | 0.00 | 0.06 | 0.06 | 46 | 975.7 |
| 20260507210403 | 61 | 76 | 3.0 | 7.0 | 0.00 | 0.06 | 0.06 | 44 | 975.8 |
| 20260507205859 | 61 | 142 | 2.0 | 4.0 | 0.00 | 0.06 | 0.06 | 44 | 975.7 |
| 20260507205357 | 62 | 69 | 5.0 | 9.0 | 0.00 | 0.06 | 0.06 | 42 | 975.8 |
| 20260507204852 | 61 | 53 | 3.0 | 4.0 | 0.00 | 0.06 | 0.06 | 45 | 975.6 |
| 20260507204349 | 60 | 86 | 2.0 | 3.0 | 0.00 | 0.06 | 0.06 | 51 | 975.6 |
| 20260507203847 | 59 | 6 | 1.0 | 6.0 | 0.00 | 0.06 | 0.06 | 49 | 975.7 |
| 20260507203344 | 60 | 77 | 3.0 | 4.0 | 0.00 | 0.06 | 0.06 | 45 | 975.5 |
| 20260507202840 | 61 | 103 | 1.0 | 6.0 | 0.00 | 0.06 | 0.06 | 44 | 975.5 |
| 20260507202337 | 62 | 111 | 3.0 | 7.0 | 0.00 | 0.06 | 0.06 | 46 | 975.5 |
| 20260507201832 | 61 | 138 | 1.0 | 3.0 | 0.00 | 0.06 | 0.06 | 46 | 975.8 |
| 20260507201328 | 61 | 246 | 2.0 | 3.0 | 0.00 | 0.06 | 0.06 | 46 | 975.9 |
| 20260507200825 | 61 | 64 | 3.0 | 4.0 | 0.00 | 0.06 | 0.06 | 48 | 975.8 |
| 20260507200321 | 60 | 93 | 2.0 | 4.0 | 0.00 | 0.06 | 0.06 | 50 | 975.9 |
| 20260507195817 | 60 | 51 | 4.0 | 4.0 | 0.00 | 0.06 | 0.06 | 45 | 975.9 |
| 20260507195314 | 61 | 239 | 1.0 | 8.0 | 0.00 | 0.06 | 0.06 | 45 | 976.1 |
| 20260507194811 | 63 | 42 | 4.0 | 6.0 | 0.00 | 0.06 | 0.06 | 45 | 976.2 |
| 20260507194307 | 63 | 195 | 5.0 | 7.0 | 0.00 | 0.06 | 0.06 | 43 | 976.2 |
| 20260507193804 | 63 | 93 | 4.0 | 9.0 | 0.00 | 0.06 | 0.06 | 47 | 976.2 |
| 20260507193301 | 64 | 191 | 2.0 | 3.0 | 0.00 | 0.06 | 0.06 | 48 | 976.2 |
| 20260507192757 | 62 | 108 | 5.0 | 7.0 | 0.00 | 0.06 | 0.06 | 46 | 976.2 |
| 20260507192254 | 61 | 74 | 4.0 | 8.0 | 0.00 | 0.06 | 0.06 | 43 | 976.2 |
| 20260507191750 | 62 | 119 | 1.0 | 4.0 | 0.00 | 0.06 | 0.06 | 49 | 976.3 |
| 20260507191247 | 61 | 189 | 3.0 | 10.0 | 0.00 | 0.06 | 0.06 | 50 | 976.2 |
| 20260507190744 | 60 | 352 | 1.0 | 8.0 | 0.00 | 0.06 | 0.06 | 54 | 976.4 |
| 20260507190242 | 60 | 9 | 2.0 | 6.0 | 0.00 | 0.06 | 0.06 | 54 | 976.5 |
| 20260507185741 | 60 | 34 | 2.0 | 6.0 | 0.00 | 0.06 | 0.06 | 49 | 976.3 |
| 20260507185237 | 61 | 103 | 5.0 | 7.0 | 0.00 | 0.06 | 0.06 | 53 | 976.4 |
| 20260507184735 | 60 | 90 | 4.0 | 7.0 | 0.00 | 0.06 | 0.06 | 49 | 976.4 |
| 20260507184233 | 62 | 295 | 5.0 | 10.0 | 0.00 | 0.06 | 0.06 | 55 | 976.4 |
| 20260507183729 | 61 | 95 | 3.0 | 10.0 | 0.00 | 0.06 | 0.06 | 47 | 976.3 |
| 20260507183226 | 61 | 323 | 0.0 | 4.0 | 0.00 | 0.06 | 0.06 | 50 | 976.3 |
| 20260507182723 | 60 | 183 | 8.0 | 11.0 | 0.00 | 0.06 | 0.06 | 53 | 976.3 |
| 20260507182218 | 60 | 46 | 9.0 | 10.0 | 0.00 | 0.06 | 0.06 | 48 | 976.3 |
| 20260507181715 | 60 | 54 | 6.0 | 8.0 | 0.00 | 0.06 | 0.06 | 50 | 976.5 |
| 20260507181212 | 59 | 70 | 2.0 | 3.0 | 0.00 | 0.06 | 0.06 | 55 | 976.5 |
| 20260507180709 | 59 | 102 | 1.0 | 3.0 | 0.00 | 0.06 | 0.06 | 52 | 976.8 |
| 20260507180205 | 62 | 206 | 2.0 | 8.0 | 0.00 | 0.06 | 0.06 | 48 | 976.7 |
| 20260507175701 | 62 | 233 | 1.0 | 4.0 | 0.00 | 0.06 | 0.06 | 56 | 976.8 |
| 20260507175158 | 60 | 129 | 1.0 | 6.0 | 0.00 | 0.06 | 0.06 | 57 | 976.6 |
| 20260507174655 | 60 | 91 | 1.0 | 3.0 | 0.00 | 0.06 | 0.06 | 54 | 976.7 |
| 20260507174153 | 60 | 164 | 4.0 | 6.0 | 0.00 | 0.06 | 0.06 | 54 | 976.9 |
| 20260507173650 | 58 | 59 | 3.0 | 4.0 | 0.00 | 0.06 | 0.06 | 56 | 976.9 |
| 20260507173147 | 59 | 69 | 1.0 | 2.0 | 0.00 | 0.06 | 0.06 | 59 | 977.0 |
| 20260507172644 | 58 | 74 | 4.0 | 4.0 | 0.00 | 0.06 | 0.06 | 58 | 977.0 |
| 20260507172141 | 57 | 316 | 0.0 | 6.0 | 0.00 | 0.06 | 0.06 | 56 | 976.8 |
| 20260507171641 | 58 | 37 | 2.0 | 3.0 | 0.00 | 0.06 | 0.06 | 55 | 977.2 |
| 20260507171138 | 58 | 352 | 3.0 | 6.0 | 0.00 | 0.06 | 0.06 | 66 | 977.2 |
| 20260507170635 | 57 | 343 | 2.0 | 7.0 | 0.00 | 0.06 | 0.06 | 60 | 977.3 |
| 20260507170133 | 59 | 72 | 3.0 | 4.0 | 0.00 | 0.06 | 0.06 | 57 | 977.2 |
| 20260507165628 | 58 | 111 | 1.0 | 4.0 | 0.00 | 0.06 | 0.06 | 56 | 977.2 |
| 20260507165124 | 59 | 77 | 5.0 | 6.0 | 0.00 | 0.06 | 0.06 | 67 | 977.4 |
| 20260507164620 | 60 | 66 | 3.0 | 4.0 | 0.00 | 0.06 | 0.06 | 58 | 977.4 |
| 20260507164117 | 58 | 294 | 2.0 | 4.0 | 0.00 | 0.06 | 0.06 | 59 | 977.6 |
| 20260507163615 | 58 | 183 | 2.0 | 8.0 | 0.00 | 0.06 | 0.06 | 61 | 977.7 |
| 20260507163113 | 57 | 105 | 2.0 | 2.0 | 0.00 | 0.06 | 0.06 | 62 | 977.8 |
| 20260507162614 | 57 | 126 | 2.0 | 3.0 | 0.00 | 0.06 | 0.06 | 62 | 977.8 |
| 20260507162111 | 57 | 349 | 1.0 | 3.0 | 0.00 | 0.06 | 0.06 | 70 | 977.9 |
| 20260507161607 | 56 | 68 | 0.0 | 3.0 | 0.00 | 0.06 | 0.06 | 60 | 977.7 |
| 20260507161103 | 56 | 31 | 5.0 | 8.0 | 0.00 | 0.06 | 0.06 | 62 | 977.8 |
| 20260507160600 | 56 | 329 | 4.0 | 6.0 | 0.00 | 0.06 | 0.06 | 60 | 977.9 |
| 20260507160056 | 58 | 67 | 1.0 | 3.0 | 0.00 | 0.06 | 0.06 | 60 | 977.7 |
| 20260507155551 | 56 | 185 | 1.0 | 4.0 | 0.00 | 0.06 | 0.06 | 62 | 977.9 |
| 20260507155049 | 59 | 0 | 1.0 | 3.0 | 0.00 | 0.06 | 0.06 | 62 | 978.0 |
| 20260507154545 | 57 | 182 | 2.0 | 6.0 | 0.00 | 0.06 | 0.06 | 65 | 977.9 |
| 20260507154043 | 58 | 351 | 1.0 | 4.0 | 0.00 | 0.06 | 0.06 | 61 | 978.3 |
| 20260507153539 | 56 | 58 | 4.0 | 8.0 | 0.00 | 0.06 | 0.06 | 64 | 978.0 |
| 20260507153035 | 58 | 45 | 2.0 | 3.0 | 0.00 | 0.06 | 0.06 | 65 | 978.1 |
| 20260507152531 | 55 | 66 | 2.0 | 3.0 | 0.00 | 0.06 | 0.06 | 67 | 978.1 |
| 20260507152028 | 58 | 268 | 3.0 | 3.0 | 0.00 | 0.06 | 0.06 | 67 | 978.1 |
| 20260507151524 | 56 | 129 | 0.0 | 4.0 | 0.00 | 0.06 | 0.06 | 61 | 978.2 |
| 20260507151021 | 55 | 89 | 2.0 | 3.0 | 0.00 | 0.06 | 0.06 | 68 | 978.2 |
| 20260507150518 | 55 | 164 | 2.0 | 4.0 | 0.00 | 0.06 | 0.06 | 66 | 978.2 |
| 20260507150015 | 55 | 140 | 2.0 | 3.0 | 0.00 | 0.06 | 0.06 | 65 | 978.2 |
| 20260507145510 | 55 | 103 | 2.0 | 3.0 | 0.00 | 0.06 | 0.06 | 69 | 978.1 |
| 20260507145008 | 55 | 313 | 0.0 | 2.0 | 0.00 | 0.06 | 0.06 | 70 | 978.3 |
| 20260507144504 | 55 | 2 | 1.0 | 2.0 | 0.00 | 0.06 | 0.06 | 67 | 978.6 |
| 20260507144001 | 55 | 2 | 0.0 | 1.0 | 0.00 | 0.06 | 0.06 | 68 | 978.4 |
| 20260507143459 | 54 | 2 | 2.0 | 3.0 | 0.00 | 0.06 | 0.06 | 70 | 978.5 |
| 20260507142955 | 54 | 24 | 1.0 | 2.0 | 0.00 | 0.06 | 0.06 | 78 | 978.5 |
| 20260507142451 | 54 | 60 | 0.0 | 2.0 | 0.00 | 0.06 | 0.06 | 79 | 978.8 |
| 20260507141948 | 53 | 60 | 0.0 | 1.0 | 0.00 | 0.06 | 0.06 | 76 | 978.8 |
| 20260507141444 | 53 | 61 | 3.0 | 4.0 | 0.00 | 0.06 | 0.06 | 79 | 978.9 |
| 20260507140941 | 53 | 303 | 0.0 | 2.0 | 0.00 | 0.06 | 0.06 | 81 | 979.1 |
| 20260507140438 | 53 | 53 | 0.0 | 0.0 | 0.00 | 0.06 | 0.06 | 85 | 979.0 |
| 20260507135936 | 53 | 53 | 1.0 | 2.0 | 0.00 | 0.06 | 0.06 | 84 | 978.9 |
| 20260507135432 | 53 | 52 | 2.0 | 2.0 | 0.00 | 0.06 | 0.06 | 84 | 979.1 |
| 20260507134930 | 52 | 52 | 0.0 | 1.0 | 0.00 | 0.06 | 0.06 | 84 | 979.1 |
| 20260507134426 | 51 | 52 | 0.0 | 2.0 | 0.00 | 0.06 | 0.06 | 85 | 979.1 |
| 20260507133922 | 52 | 52 | 1.0 | 2.0 | 0.00 | 0.06 | 0.06 | 88 | 979.1 |
| 20260507133418 | 51 | 76 | 1.0 | 2.0 | 0.00 | 0.06 | 0.06 | 90 | 979.0 |
| 20260507132917 | 51 | 77 | 1.0 | 1.0 | 0.00 | 0.06 | 0.06 | 90 | 979.0 |
| 20260507132413 | 51 | 77 | 1.0 | 2.0 | 0.00 | 0.06 | 0.06 | 92 | 979.1 |
| 20260507131909 | 51 | 70 | 0.0 | 2.0 | 0.00 | 0.06 | 0.06 | 91 | 979.2 |
| 20260507131406 | 51 | 70 | 0.0 | 1.0 | 0.00 | 0.06 | 0.06 | 92 | 979.2 |
| 20260507130903 | 51 | 70 | 0.0 | 0.0 | 0.00 | 0.06 | 0.06 | 92 | 979.4 |
| 20260507130400 | 51 | 70 | 0.0 | 1.0 | 0.00 | 0.06 | 0.06 | 95 | 979.3 |
| 20260507125859 | 50 | 70 | 0.0 | 1.0 | 0.00 | 0.06 | 0.06 | 95 | 979.2 |
| 20260507125356 | 50 | 70 | 0.0 | 1.0 | 0.00 | 0.06 | 0.06 | 96 | 979.4 |
| 20260507124854 | 50 | 70 | 0.0 | 0.0 | 0.00 | 0.06 | 0.06 | 96 | 979.3 |
| 20260507124349 | 50 | 70 | 1.0 | 1.0 | 0.00 | 0.06 | 0.06 | 97 | 979.5 |
| 20260507123848 | 50 | 70 | 0.0 | 0.0 | 0.00 | 0.06 | 0.06 | 97 | 979.2 |
| 20260507123345 | 49 | 70 | 0.0 | 0.0 | 0.00 | 0.06 | 0.06 | 98 | 979.2 |
| 20260507122841 | 49 | 70 | 0.0 | 0.0 | 0.00 | 0.06 | 0.06 | 98 | 979.1 |
| 20260507122337 | 49 | 70 | 0.0 | 0.0 | 0.00 | 0.06 | 0.06 | 98 | 979.3 |
| 20260507121833 | 49 | 70 | 0.0 | 0.0 | 0.00 | 0.06 | 0.06 | 99 | 979.2 |
| 20260507121329 | 49 | 70 | 0.0 | 0.0 | 0.00 | 0.06 | 0.06 | 99 | 979.3 |
| 20260507120826 | 49 | 70 | 0.0 | 0.0 | 0.00 | 0.06 | 0.06 | 99 | 979.2 |
| 20260507120322 | 49 | 70 | 0.0 | 0.0 | 0.00 | 0.06 | 0.06 | 99 | 979.3 |
| 20260507115818 | 49 | 70 | 0.0 | 0.0 | 0.00 | 0.06 | 0.06 | 99 | 979.2 |
| 20260507115314 | 49 | 70 | 0.0 | 0.0 | 0.00 | 0.06 | 0.06 | 99 | 979.5 |
| 20260507114810 | 49 | 70 | 0.0 | 0.0 | 0.00 | 0.06 | 0.06 | 99 | 979.2 |
| 20260507114308 | 49 | 70 | 0.0 | 0.0 | 0.00 | 0.06 | 0.06 | 99 | 978.9 |
| 20260507113805 | 48 | 70 | 0.0 | 0.0 | 0.00 | 0.06 | 0.06 | 99 | 979.0 |
| 20260507113302 | 48 | 70 | 0.0 | 0.0 | 0.00 | 0.06 | 0.06 | 99 | 979.1 |
| 20260507112759 | 48 | 70 | 0.0 | 0.0 | 0.00 | 0.06 | 0.06 | 99 | 978.9 |
| 20260507112256 | 48 | 70 | 0.0 | 0.0 | 0.00 | 0.06 | 0.06 | 99 | 978.9 |
| 20260507111754 | 48 | 70 | 0.0 | 0.0 | 0.00 | 0.06 | 0.06 | 99 | 978.8 |
| 20260507111250 | 48 | 70 | 0.0 | 0.0 | 0.00 | 0.06 | 0.06 | 99 | 978.6 |
| 20260507110746 | 48 | 70 | 0.0 | 0.0 | 0.00 | 0.06 | 0.06 | 99 | 978.5 |
| 20260507110243 | 48 | 70 | 0.0 | 0.0 | 0.00 | 0.06 | 0.06 | 99 | 978.5 |
| 20260507105740 | 48 | 70 | 0.0 | 0.0 | 0.00 | 0.06 | 0.06 | 99 | 978.2 |
| 20260507105236 | 48 | 70 | 0.0 | 0.0 | 0.00 | 0.06 | 0.06 | 99 | 978.4 |
| 20260507104733 | 48 | 70 | 0.0 | 0.0 | 0.00 | 0.06 | 0.06 | 99 | 978.2 |
| 20260507104230 | 48 | 70 | 0.0 | 0.0 | 0.00 | 0.06 | 0.06 | 99 | 978.2 |
| 20260507103726 | 48 | 70 | 0.0 | 0.0 | 0.00 | 0.06 | 0.06 | 99 | 978.3 |
| 20260507103222 | 48 | 70 | 0.0 | 0.0 | 0.00 | 0.06 | 0.06 | 99 | 978.3 |
| 20260507102719 | 48 | 70 | 0.0 | 0.0 | 0.00 | 0.06 | 0.06 | 99 | 978.4 |
| 20260507102215 | 48 | 70 | 0.0 | 0.0 | 0.00 | 0.06 | 0.06 | 99 | 978.4 |
| 20260507101711 | 48 | 70 | 0.0 | 0.0 | 0.00 | 0.06 | 0.06 | 99 | 978.3 |
| 20260507101207 | 48 | 70 | 0.0 | 0.0 | 0.00 | 0.06 | 0.06 | 99 | 978.3 |
| 20260507100704 | 48 | 70 | 0.0 | 0.0 | 0.00 | 0.06 | 0.06 | 99 | 978.3 |
| 20260507100203 | 48 | 70 | 0.0 | 0.0 | 0.00 | 0.06 | 0.06 | 99 | 978.2 |
| 20260507095700 | 48 | 70 | 0.0 | 0.0 | 0.00 | 0.06 | 0.06 | 99 | 978.4 |
| 20260507095156 | 48 | 70 | 0.0 | 0.0 | 0.00 | 0.06 | 0.06 | 99 | 978.1 |
| 20260507094653 | 48 | 70 | 0.0 | 0.0 | 0.00 | 0.06 | 0.06 | 99 | 978.3 |
| 20260507094150 | 48 | 70 | 0.0 | 0.0 | 0.00 | 0.06 | 0.06 | 99 | 978.3 |
| 20260507093647 | 48 | 70 | 0.0 | 0.0 | 0.00 | 0.06 | 0.06 | 99 | 978.3 |
| 20260507093146 | 48 | 70 | 0.0 | 0.0 | 0.00 | 0.06 | 0.06 | 99 | 978.2 |
| 20260507092642 | 48 | 70 | 0.0 | 0.0 | 0.00 | 0.06 | 0.06 | 99 | 978.0 |
| 20260507092139 | 48 | 70 | 0.0 | 0.0 | 0.00 | 0.06 | 0.06 | 99 | 978.0 |
| 20260507091635 | 48 | 70 | 0.0 | 0.0 | 0.00 | 0.06 | 0.06 | 99 | 978.0 |
| 20260507091131 | 48 | 70 | 0.0 | 0.0 | 0.00 | 0.06 | 0.06 | 99 | 978.1 |
| 20260507090627 | 48 | 70 | 0.0 | 0.0 | 0.00 | 0.06 | 0.06 | 99 | 978.1 |
| 20260507090125 | 48 | 70 | 0.0 | 0.0 | 0.00 | 0.06 | 0.06 | 99 | 977.9 |
| 20260507085622 | 48 | 70 | 0.0 | 0.0 | 0.00 | 0.06 | 0.06 | 99 | 978.2 |
| 20260507085118 | 48 | 70 | 0.0 | 0.0 | 0.00 | 0.06 | 0.06 | 99 | 978.1 |
| 20260507084615 | 48 | 70 | 0.0 | 0.0 | 0.00 | 0.06 | 0.06 | 99 | 978.2 |
| 20260507084112 | 48 | 70 | 0.0 | 1.0 | 0.00 | 0.06 | 0.06 | 99 | 978.2 |
| 20260507083609 | 48 | 70 | 0.0 | 0.0 | 0.00 | 0.06 | 0.06 | 99 | 978.3 |
| 20260507083106 | 48 | 70 | 0.0 | 0.0 | 0.00 | 0.06 | 0.06 | 99 | 978.3 |
| 20260507082601 | 48 | 70 | 0.0 | 0.0 | 0.00 | 0.06 | 0.06 | 99 | 978.4 |
| 20260507082058 | 48 | 70 | 0.0 | 0.0 | 0.00 | 0.06 | 0.06 | 99 | 978.1 |
| 20260507081554 | 48 | 70 | 0.0 | 0.0 | 0.00 | 0.06 | 0.06 | 99 | 978.3 |
| 20260507081051 | 48 | 70 | 0.0 | 0.0 | 0.00 | 0.06 | 0.06 | 99 | 978.0 |
| 20260507080547 | 48 | 70 | 0.0 | 0.0 | 0.00 | 0.06 | 0.06 | 99 | 978.3 |
| 20260507080044 | 48 | 70 | 0.0 | 0.0 | 0.00 | 0.06 | 0.06 | 99 | 978.2 |
| 20260507075539 | 48 | 70 | 0.0 | 0.0 | 0.00 | 0.06 | 0.06 | 99 | 978.2 |
| 20260507075036 | 48 | 70 | 0.0 | 0.0 | 0.00 | 0.06 | 0.06 | 99 | 978.2 |
| 20260507074532 | 48 | 70 | 0.0 | 0.0 | 0.00 | 0.06 | 0.06 | 99 | 978.0 |
| 20260507074031 | 48 | 70 | 0.0 | 0.0 | 0.00 | 0.06 | 0.06 | 99 | 978.0 |
| 20260507073527 | 48 | 70 | 1.0 | 1.0 | 0.00 | 0.06 | 0.06 | 99 | 978.0 |
| 20260507073023 | 48 | 70 | 0.0 | 1.0 | 0.00 | 0.06 | 0.06 | 99 | 978.0 |
| 20260507072521 | 49 | 70 | 0.0 | 1.0 | 0.00 | 0.06 | 0.06 | 99 | 978.1 |
| 20260507072018 | 49 | 70 | 0.0 | 0.0 | 0.00 | 0.06 | 0.06 | 98 | 978.2 |
| 20260507071515 | 49 | 70 | 0.0 | 0.0 | 0.00 | 0.06 | 0.06 | 97 | 978.0 |
| 20260507071012 | 49 | 70 | 0.0 | 0.0 | 0.05 | 0.06 | 0.06 | 97 | 978.0 |
| 20260507070509 | 49 | 70 | 0.0 | 1.0 | 0.05 | 0.06 | 0.06 | 96 | 978.0 |
| 20260507070010 | 49 | 337 | 0.0 | 1.0 | 0.00 | 0.05 | 0.05 | 97 | 978.2 |
| 20260507065502 | 49 | 337 | 0.0 | 1.0 | 0.00 | 0.05 | 0.05 | 98 | 978.1 |
| 20260507064959 | 49 | 337 | 0.0 | 0.0 | 0.00 | 0.05 | 0.05 | 98 | 978.1 |
| 20260507064458 | 49 | 337 | 0.0 | 0.0 | 0.00 | 0.05 | 0.05 | 99 | 978.1 |
| 20260507063955 | 49 | 337 | 0.0 | 2.0 | 0.00 | 0.05 | 0.05 | 99 | 978.4 |
| 20260507063452 | 49 | 337 | 3.0 | 3.0 | 0.00 | 0.05 | 0.05 | 99 | 978.2 |
| 20260507062949 | 49 | 227 | 0.0 | 0.0 | 0.00 | 0.05 | 0.05 | 99 | 978.3 |
| 20260507062446 | 49 | 227 | 0.0 | 0.0 | 0.00 | 0.05 | 0.05 | 99 | 977.9 |
| 20260507061943 | 49 | 227 | 0.0 | 0.0 | 0.00 | 0.05 | 0.05 | 99 | 978.2 |
| 20260507061442 | 49 | 227 | 0.0 | 0.0 | 0.00 | 0.05 | 0.05 | 99 | 978.1 |
| 20260507060940 | 50 | 227 | 0.0 | 0.0 | 0.07 | 0.05 | 0.05 | 99 | 978.0 |
| 20260507060436 | 50 | 227 | 0.0 | 0.0 | 0.00 | 0.04 | 0.04 | 99 | 978.1 |
| 20260507055933 | 50 | 227 | 0.0 | 0.0 | 0.00 | 0.04 | 0.04 | 99 | 978.4 |
| 20260507055428 | 50 | 227 | 0.0 | 0.0 | 0.00 | 0.04 | 0.04 | 99 | 978.3 |
| 20260507054925 | 49 | 227 | 1.0 | 3.0 | 0.00 | 0.04 | 0.04 | 99 | 978.4 |
| 20260507054421 | 50 | 82 | 1.0 | 2.0 | 0.07 | 0.04 | 0.04 | 99 | 978.5 |
| 20260507053919 | 50 | 82 | 0.0 | 0.0 | 0.07 | 0.04 | 0.04 | 99 | 978.3 |
| 20260507053416 | 50 | 82 | 0.0 | 0.0 | 0.00 | 0.03 | 0.03 | 99 | 978.5 |
| 20260507052915 | 50 | 82 | 0.0 | 0.0 | 0.05 | 0.03 | 0.03 | 99 | 978.6 |
| 20260507052412 | 50 | 82 | 0.0 | 0.0 | 0.05 | 0.03 | 0.03 | 99 | 978.5 |
| 20260507051903 | 50 | 82 | 0.0 | 0.0 | 0.00 | 0.02 | 0.02 | 99 | 978.5 |
| 20260507051401 | 50 | 82 | 1.0 | 1.0 | 0.00 | 0.02 | 0.02 | 99 | 978.5 |
| 20260507050857 | 50 | 82 | 0.0 | 0.0 | 0.00 | 0.02 | 0.02 | 98 | 978.6 |
| 20260507050353 | 50 | 82 | 1.0 | 1.0 | 0.00 | 0.02 | 0.02 | 98 | 978.4 |
| 20260507045851 | 50 | 82 | 0.0 | 1.0 | 0.00 | 0.02 | 0.02 | 98 | 978.4 |
| 20260507045347 | 50 | 82 | 0.0 | 1.0 | 0.07 | 0.02 | 0.02 | 98 | 978.6 |
| 20260507044844 | 50 | 344 | 0.0 | 1.0 | 0.00 | 0.01 | 0.01 | 98 | 978.5 |
| 20260507044340 | 50 | 344 | 1.0 | 1.0 | 0.00 | 0.01 | 0.01 | 98 | 978.6 |
| 20260507043837 | 50 | 344 | 1.0 | 2.0 | 0.00 | 0.01 | 0.01 | 97 | 978.5 |
| 20260507043333 | 50 | 343 | 0.0 | 2.0 | 0.00 | 0.01 | 0.01 | 98 | 978.6 |
| 20260507042830 | 51 | 287 | 1.0 | 4.0 | 0.05 | 0.01 | 0.01 | 98 | 978.3 |
| 20260507042325 | 51 | 30 | 0.0 | 0.0 | 0.05 | 0.01 | 0.01 | 99 | 978.5 |
| 20260507041823 | 51 | 30 | 0.0 | 0.0 | 0.00 | 0.00 | 0.00 | 99 | 978.6 |
| 20260507041319 | 51 | 30 | 0.0 | 1.0 | 0.00 | 0.00 | 0.00 | 99 | 978.3 |
| 20260507040816 | 51 | 30 | 0.0 | 0.0 | 0.00 | 0.00 | 0.00 | 99 | 978.0 |
| 20260507040312 | 51 | 30 | 0.0 | 0.0 | 0.00 | 0.00 | 0.00 | 99 | 977.9 |
| 20260507035808 | 51 | 30 | 0.0 | 1.0 | 0.00 | 0.63 | 0.63 | 99 | 978.0 |
| 20260507035306 | 51 | 30 | 0.0 | 1.0 | 0.07 | 0.63 | 0.63 | 99 | 978.1 |
| 20260507034802 | 52 | 63 | 1.0 | 2.0 | 0.07 | 0.63 | 0.63 | 99 | 978.1 |
| 20260507034258 | 52 | 63 | 0.0 | 0.0 | 0.00 | 0.62 | 0.62 | 99 | 978.2 |
| 20260507033757 | 52 | 63 | 0.0 | 0.0 | 0.00 | 0.62 | 0.62 | 99 | 978.2 |
| 20260507033254 | 52 | 63 | 0.0 | 0.0 | 0.00 | 0.62 | 0.62 | 99 | 978.2 |
| 20260507032751 | 52 | 63 | 0.0 | 0.0 | 0.00 | 0.62 | 0.62 | 99 | 978.1 |
| 20260507032247 | 52 | 63 | 0.0 | 0.0 | 0.00 | 0.62 | 0.62 | 99 | 978.4 |
| 20260507031743 | 52 | 63 | 0.0 | 1.0 | 0.00 | 0.62 | 0.62 | 99 | 978.0 |
| 20260507031240 | 52 | 63 | 0.0 | 0.0 | 0.00 | 0.62 | 0.62 | 99 | 978.2 |
| 20260507030737 | 52 | 63 | 1.0 | 2.0 | 0.00 | 0.62 | 0.62 | 98 | 978.0 |
| 20260507030234 | 52 | 67 | 0.0 | 0.0 | 0.00 | 0.62 | 0.62 | 98 | 977.5 |
| 20260507025732 | 53 | 67 | 1.0 | 1.0 | 0.00 | 0.62 | 0.62 | 98 | 978.2 |
| 20260507025228 | 52 | 67 | 1.0 | 3.0 | 0.00 | 0.62 | 0.62 | 98 | 979.0 |
| 20260507024727 | 53 | 276 | 0.0 | 0.0 | 0.00 | 0.62 | 0.62 | 99 | 978.8 |
| 20260507024224 | 53 | 276 | 1.0 | 3.0 | 0.00 | 0.62 | 0.62 | 99 | 978.7 |
| 20260507023719 | 53 | 242 | 2.0 | 2.0 | 0.00 | 0.62 | 0.62 | 99 | 978.0 |
| 20260507023216 | 53 | 174 | 0.0 | 1.0 | 0.00 | 0.62 | 0.62 | 99 | 977.9 |
| 20260507022714 | 53 | 171 | 3.0 | 3.0 | 0.00 | 0.62 | 0.62 | 98 | 978.3 |
| 20260507022209 | 53 | 215 | 1.0 | 2.0 | 0.00 | 0.62 | 0.62 | 98 | 978.1 |
| 20260507021706 | 53 | 292 | 0.0 | 1.0 | 0.00 | 0.62 | 0.62 | 98 | 978.2 |
| 20260507021201 | 53 | 295 | 2.0 | 3.0 | 0.05 | 0.62 | 0.62 | 98 | 978.2 |
| 20260507020700 | 53 | 327 | 0.0 | 2.0 | 0.05 | 0.62 | 0.62 | 98 | 977.7 |
| 20260507020156 | 53 | 130 | 0.0 | 0.0 | 0.00 | 0.61 | 0.61 | 99 | 978.3 |
| 20260507015654 | 53 | 130 | 0.0 | 0.0 | 0.00 | 0.61 | 0.61 | 99 | 978.0 |
| 20260507015151 | 53 | 125 | 0.0 | 1.0 | 0.00 | 0.61 | 0.61 | 99 | 977.8 |
| 20260507014647 | 53 | 129 | 1.0 | 2.0 | 0.00 | 0.61 | 0.61 | 99 | 977.4 |
| 20260507014143 | 53 | 130 | 0.0 | 1.0 | 0.00 | 0.61 | 0.61 | 99 | 978.0 |
| 20260507013641 | 53 | 130 | 0.0 | 0.0 | 0.00 | 0.61 | 0.61 | 99 | 977.4 |
| 20260507013138 | 53 | 130 | 0.0 | 0.0 | 0.00 | 0.61 | 0.61 | 99 | 977.4 |
| 20260507012636 | 53 | 130 | 0.0 | 0.0 | 0.00 | 0.61 | 0.61 | 99 | 977.5 |
| 20260507012130 | 53 | 130 | 0.0 | 0.0 | 0.00 | 0.61 | 0.61 | 99 | 977.4 |
| 20260507011629 | 53 | 130 | 0.0 | 0.0 | 0.00 | 0.61 | 0.61 | 99 | 977.3 |
| 20260507011124 | 53 | 130 | 0.0 | 1.0 | 0.00 | 0.61 | 0.61 | 99 | 977.6 |
| 20260507010620 | 53 | 130 | 0.0 | 1.0 | 0.00 | 0.61 | 0.61 | 99 | 977.4 |
| 20260507010115 | 53 | 130 | 0.0 | 1.0 | 0.00 | 0.61 | 0.61 | 99 | 977.5 |
| 20260507005613 | 53 | 130 | 0.0 | 1.0 | 0.00 | 0.61 | 0.61 | 99 | 977.5 |
| 20260507005109 | 53 | 130 | 0.0 | 0.0 | 0.00 | 0.61 | 0.61 | 99 | 977.2 |
| 20260507004606 | 53 | 130 | 0.0 | 0.0 | 0.00 | 0.61 | 0.61 | 99 | 977.2 |
| 20260507004104 | 53 | 130 | 0.0 | 0.0 | 0.00 | 0.61 | 0.61 | 99 | 976.9 |
| 20260507003559 | 53 | 130 | 0.0 | 0.0 | 0.00 | 0.61 | 0.61 | 99 | 977.2 |
| 20260507003055 | 53 | 130 | 0.0 | 0.0 | 0.00 | 0.61 | 0.61 | 99 | 977.5 |
| 20260507002551 | 53 | 130 | 0.0 | 0.0 | 0.00 | 0.61 | 0.61 | 99 | 977.0 |
| 20260507002047 | 53 | 130 | 0.0 | 0.0 | 0.00 | 0.61 | 0.61 | 99 | 977.1 |
| 20260507001544 | 53 | 130 | 0.0 | 0.0 | 0.00 | 0.61 | 0.61 | 99 | 976.9 |
| 20260507001042 | 53 | 130 | 0.0 | 0.0 | 0.00 | 0.61 | 0.61 | 99 | 977.1 |
| 20260507000538 | 53 | 130 | 0.0 | 0.0 | 0.00 | 0.61 | 0.61 | 99 | 977.0 |
| 20260507000033 | 53 | 130 | 0.0 | 0.0 | 0.00 | 0.61 | 0.61 | 99 | 976.7 |
| 20260506235531 | 53 | 130 | 0.0 | 1.0 | 0.00 | 0.61 | 0.61 | 99 | 976.8 |
| 20260506235026 | 54 | 130 | 0.0 | 0.0 | 0.00 | 0.61 | 0.61 | 99 | 977.3 |
| 20260506234525 | 53 | 130 | 1.0 | 1.0 | 0.00 | 0.61 | 0.61 | 99 | 977.6 |
| 20260506234021 | 54 | 130 | 0.0 | 0.0 | 0.00 | 0.61 | 0.61 | 99 | 977.4 |
| 20260506233518 | 54 | 130 | 0.0 | 0.0 | 0.00 | 0.61 | 0.61 | 99 | 977.4 |
| 20260506233015 | 54 | 130 | 0.0 | 0.0 | 0.00 | 0.61 | 0.61 | 99 | 977.4 |
| 20260506232511 | 54 | 130 | 0.0 | 0.0 | 0.00 | 0.61 | 0.61 | 99 | 977.5 |
| 20260506232006 | 54 | 130 | 0.0 | 0.0 | 0.00 | 0.61 | 0.61 | 99 | 977.5 |
| 20260506231504 | 54 | 130 | 0.0 | 1.0 | 0.00 | 0.61 | 0.61 | 99 | 977.3 |
| 20260506231002 | 54 | 130 | 0.0 | 0.0 | 0.00 | 0.61 | 0.61 | 98 | 977.4 |